Time,TemperatureF,DewpointF,PressureIn,WindDirection,WindDirectionDegrees,WindSpeedMPH,WindSpeedGustMPH,Humidity,HourlyPrecipIn,Conditions,Clouds,dailyrainin,SoftwareType,DateUTC
2013-04-25 00:05:00,48.8,44.0,29.91,NW,319,0.0,-999.0,84,-99.99,,,0.00,weatherlink.com 1.10,2013-04-25 07:05:00,
2013-04-25 00:20:00,48.9,44.0,29.92,NW,319,1.0,-999.0,84,-99.99,,,0.00,weatherlink.com 1.10,2013-04-25 07:20:00,
2013-04-25 00:35:00,49.2,44.0,29.93,NW,319,0.0,-999.0,83,-99.99,,,0.00,weatherlink.com 1.10,2013-04-25 07:35:00,
2013-04-25 00:50:00,49.4,44.0,29.93,NW,319,1.0,-999.0,83,-99.99,,,0.00,weatherlink.com 1.10,2013-04-25 07:50:00,
2013-04-25 01:05:00,49.6,45.0,29.93,NW,318,0.0,-999.0,83,-99.99,,,0.00,weatherlink.com 1.10,2013-04-25 08:05:00,
2013-04-25 01:20:00,49.9,45.0,29.93,NW,318,0.0,-999.0,83,-99.99,,,0.00,weatherlink.com 1.10,2013-04-25 08:20:00,
2013-04-25 01:36:00,50.1,45.0,29.93,NW,318,0.0,-999.0,82,-99.99,,,0.00,weatherlink.com 1.10,2013-04-25 08:36:00,
2013-04-25 01:51:00,50.1,45.0,29.93,NW,318,0.0,-999.0,82,-99.99,,,0.00,weatherlink.com 1.10,2013-04-25 08:51:00,
2013-04-25 02:06:00,50.1,45.0,29.93,NW,318,0.0,-999.0,82,-99.99,,,0.00,weatherlink.com 1.10,2013-04-25 09:06:00,
2013-04-25 02:21:00,49.9,45.0,29.93,NW,318,0.0,-999.0,82,-99.99,,,0.00,weatherlink.com 1.10,2013-04-25 09:21:00,
2013-04-25 02:36:00,49.8,45.0,29.93,NW,318,0.0,-999.0,83,-99.99,,,0.00,weatherlink.com 1.10,2013-04-25 09:36:00,
2013-04-25 02:51:00,49.5,45.0,29.93,NW,318,0.0,-999.0,83,-99.99,,,0.00,weatherlink.com 1.10,2013-04-25 09:51:00,
2013-04-25 03:06:00,49.2,44.0,29.93,NW,318,0.0,-999.0,83,-99.99,,,0.00,weatherlink.com 1.10,2013-04-25 10:06:00,
2013-04-25 03:21:00,48.9,44.0,29.94,NE,34,0.0,-999.0,84,-99.99,,,0.00,weatherlink.com 1.10,2013-04-25 10:21:00,
2013-04-25 03:36:00,48.8,44.0,29.94,NNW,333,1.0,-999.0,84,-99.99,,,0.00,weatherlink.com 1.10,2013-04-25 10:36:00,
2013-04-25 03:52:00,48.5,44.0,29.94,NNW,333,1.0,-999.0,84,-99.99,,,0.00,weatherlink.com 1.10,2013-04-25 10:52:00,
2013-04-25 04:07:00,48.3,44.0,29.94,NNW,333,2.0,-999.0,85,-99.99,,,0.00,weatherlink.com 1.10,2013-04-25 11:07:00,
2013-04-25 04:22:00,48.3,44.0,29.94,NNW,333,1.0,-999.0,85,-99.99,,,0.00,weatherlink.com 1.10,2013-04-25 11:22:00,
2013-04-25 04:37:00,48.5,44.0,29.94,NW,315,0.0,-999.0,85,-99.99,,,0.00,weatherlink.com 1.10,2013-04-25 11:37:00,
2013-04-25 04:52:00,48.3,44.0,29.94,NW,315,0.0,-999.0,84,-99.99,,,0.00,weatherlink.com 1.10,2013-04-25 11:52:00,
2013-04-25 05:07:00,48.3,44.0,29.95,NW,315,0.0,-999.0,84,-99.99,,,0.00,weatherlink.com 1.10,2013-04-25 12:07:00,
2013-04-25 05:22:00,48.5,44.0,29.95,NW,315,2.0,-999.0,84,-99.99,,,0.00,weatherlink.com 1.10,2013-04-25 12:22:00,
2013-04-25 05:37:00,48.5,44.0,29.95,NW,315,2.0,-999.0,84,-99.99,,,0.00,weatherlink.com 1.10,2013-04-25 12:37:00,
2013-04-25 05:52:00,48.6,44.0,29.95,NW,315,0.0,-999.0,84,-99.99,,,0.00,weatherlink.com 1.10,2013-04-25 12:52:00,
2013-04-25 06:07:00,48.6,44.0,29.96,NW,315,1.0,-999.0,84,-99.99,,,0.00,weatherlink.com 1.10,2013-04-25 13:07:00,
2013-04-25 06:22:00,48.8,44.0,29.97,NW,315,2.0,-999.0,84,-99.99,,,0.00,weatherlink.com 1.10,2013-04-25 13:22:00,
2013-04-25 06:37:00,48.8,44.0,29.98,NW,315,0.0,-999.0,84,-99.99,,,0.00,weatherlink.com 1.10,2013-04-25 13:37:00,
2013-04-25 06:52:00,48.8,44.0,29.98,NW,315,1.0,-999.0,84,-99.99,,,0.00,weatherlink.com 1.10,2013-04-25 13:52:00,
2013-04-25 07:07:00,48.9,44.0,29.98,NW,319,0.0,-999.0,84,-99.99,,,0.00,weatherlink.com 1.10,2013-04-25 14:07:00,
2013-04-25 07:22:00,49.1,45.0,29.99,NW,319,0.0,-999.0,84,-99.99,,,0.00,weatherlink.com 1.10,2013-04-25 14:22:00,
2013-04-25 07:37:00,49.2,44.0,30.00,NW,319,0.0,-999.0,83,-99.99,,,0.00,weatherlink.com 1.10,2013-04-25 14:37:00,
2013-04-25 07:52:00,49.4,44.0,30.00,NW,315,0.0,-999.0,83,-99.99,,,0.00,weatherlink.com 1.10,2013-04-25 14:52:00,
2013-04-25 08:06:00,49.6,44.0,30.01,NW,315,0.0,-999.0,82,-99.99,,,0.00,weatherlink.com 1.10,2013-04-25 15:06:00,
2013-04-25 08:21:00,49.9,45.0,30.00,NW,315,0.0,-999.0,82,-99.99,,,0.00,weatherlink.com 1.10,2013-04-25 15:21:00,
2013-04-25 08:36:00,50.4,45.0,30.01,NW,315,0.0,-999.0,81,-99.99,,,0.00,weatherlink.com 1.10,2013-04-25 15:36:00,
2013-04-25 08:51:00,50.8,45.0,30.01,North,10,0.0,-999.0,80,-99.99,,,0.00,weatherlink.com 1.10,2013-04-25 15:51:00,
2013-04-25 09:06:00,51.4,45.0,30.01,North,10,0.0,-999.0,79,-99.99,,,0.00,weatherlink.com 1.10,2013-04-25 16:06:00,
2013-04-25 09:21:00,52.0,45.0,30.02,NE,41,2.0,-999.0,77,-99.99,,,0.00,weatherlink.com 1.10,2013-04-25 16:21:00,
2013-04-25 09:37:00,52.6,46.0,30.03,NE,41,0.0,-999.0,77,-99.99,,,0.00,weatherlink.com 1.10,2013-04-25 16:37:00,
2013-04-25 09:52:00,53.2,45.0,30.03,NNE,31,0.0,-999.0,75,-99.99,,,0.00,weatherlink.com 1.10,2013-04-25 16:52:00,
2013-04-25 10:07:00,53.9,46.0,30.03,NE,48,2.0,-999.0,74,-99.99,,,0.00,weatherlink.com 1.10,2013-04-25 17:07:00,
2013-04-25 10:23:00,56.0,47.0,30.04,NNE,25,2.0,-999.0,71,-99.99,,,0.00,weatherlink.com 1.10,2013-04-25 17:23:00,
2013-04-25 10:38:00,57.6,47.0,30.04,NNW,345,0.0,-999.0,67,-99.99,,,0.00,weatherlink.com 1.10,2013-04-25 17:38:00,
2013-04-25 10:53:00,59.0,47.0,30.03,NE,47,0.0,-999.0,64,-99.99,,,0.00,weatherlink.com 1.10,2013-04-25 17:53:00,
2013-04-25 11:07:00,60.2,47.0,30.03,NNW,348,1.0,-999.0,63,-99.99,,,0.00,weatherlink.com 1.10,2013-04-25 18:07:00,
2013-04-25 11:22:00,60.9,47.0,30.03,NNW,340,3.0,-999.0,61,-99.99,,,0.00,weatherlink.com 1.10,2013-04-25 18:22:00,
2013-04-25 11:37:00,62.1,47.0,30.03,ENE,59,2.0,-999.0,59,-99.99,,,0.00,weatherlink.com 1.10,2013-04-25 18:37:00,
2013-04-25 11:52:00,62.9,48.0,30.02,NNE,15,2.0,-999.0,58,-99.99,,,0.00,weatherlink.com 1.10,2013-04-25 18:52:00,
2013-04-25 12:07:00,62.6,47.0,30.02,North,355,0.0,-999.0,58,-99.99,,,0.00,weatherlink.com 1.10,2013-04-25 19:07:00,
2013-04-25 12:22:00,64.2,48.0,30.02,WNW,298,3.0,-999.0,56,-99.99,,,0.00,weatherlink.com 1.10,2013-04-25 19:22:00,
2013-04-25 12:37:00,64.8,48.0,30.02,West,277,0.0,-999.0,55,-99.99,,,0.00,weatherlink.com 1.10,2013-04-25 19:37:00,
2013-04-25 12:52:00,66.3,48.0,30.02,NNE,31,0.0,-999.0,53,-99.99,,,0.00,weatherlink.com 1.10,2013-04-25 19:52:00,
2013-04-25 13:07:00,67.3,48.0,30.02,NW,325,3.0,-999.0,51,-99.99,,,0.00,weatherlink.com 1.10,2013-04-25 20:07:00,
2013-04-25 13:22:00,68.1,49.0,30.01,ENE,63,1.0,-999.0,51,-99.99,,,0.00,weatherlink.com 1.10,2013-04-25 20:22:00,
2013-04-25 13:37:00,69.4,49.0,30.01,NE,48,1.0,-999.0,49,-99.99,,,0.00,weatherlink.com 1.10,2013-04-25 20:37:00,
2013-04-25 13:52:00,69.8,50.0,30.01,NNW,332,0.0,-999.0,50,-99.99,,,0.00,weatherlink.com 1.10,2013-04-25 20:52:00,
2013-04-25 14:07:00,69.8,49.0,30.01,West,270,0.0,-999.0,48,-99.99,,,0.00,weatherlink.com 1.10,2013-04-25 21:07:00,
2013-04-25 14:22:00,71.5,49.0,30.01,WNW,290,0.0,-999.0,45,-99.99,,,0.00,weatherlink.com 1.10,2013-04-25 21:22:00,
2013-04-25 14:37:00,71.5,49.0,30.01,NW,324,2.0,-999.0,45,-99.99,,,0.00,weatherlink.com 1.10,2013-04-25 21:37:00,
2013-04-25 14:52:00,71.5,50.0,30.01,NW,324,5.0,-999.0,47,-99.99,,,0.00,weatherlink.com 1.10,2013-04-25 21:52:00,
2013-04-25 15:08:00,71.3,49.0,30.01,NW,322,0.0,-999.0,46,-99.99,,,0.00,weatherlink.com 1.10,2013-04-25 22:08:00,
2013-04-25 15:23:00,71.1,49.0,30.01,WNW,296,4.0,-999.0,46,-99.99,,,0.00,weatherlink.com 1.10,2013-04-25 22:23:00,
2013-04-25 15:38:00,70.9,49.0,30.01,WNW,296,1.0,-999.0,46,-99.99,,,0.00,weatherlink.com 1.10,2013-04-25 22:38:00,
2013-04-25 15:53:00,71.3,49.0,30.00,WNW,295,5.0,-999.0,45,-99.99,,,0.00,weatherlink.com 1.10,2013-04-25 22:53:00,
2013-04-25 16:08:00,71.1,49.0,30.00,NW,308,1.0,-999.0,45,-99.99,,,0.00,weatherlink.com 1.10,2013-04-25 23:08:00,
2013-04-25 16:23:00,70.8,48.0,30.00,NW,323,4.0,-999.0,45,-99.99,,,0.00,weatherlink.com 1.10,2013-04-25 23:23:00,
2013-04-25 16:38:00,70.3,48.0,30.00,WNW,290,4.0,-999.0,46,-99.99,,,0.00,weatherlink.com 1.10,2013-04-25 23:38:00,
2013-04-25 16:53:00,69.4,48.0,30.00,WNW,286,3.0,-999.0,47,-99.99,,,0.00,weatherlink.com 1.10,2013-04-25 23:53:00,
2013-04-25 17:08:00,69.1,48.0,30.00,WNW,300,4.0,-999.0,47,-99.99,,,0.00,weatherlink.com 1.10,2013-04-26 00:08:00,
2013-04-25 17:23:00,68.4,48.0,30.00,WNW,289,3.0,-999.0,49,-99.99,,,0.00,weatherlink.com 1.10,2013-04-26 00:23:00,
2013-04-25 17:38:00,68.1,49.0,30.00,WNW,291,6.0,-999.0,50,-99.99,,,0.00,weatherlink.com 1.10,2013-04-26 00:38:00,
2013-04-25 17:53:00,67.4,48.0,30.00,WNW,285,6.0,-999.0,51,-99.99,,,0.00,weatherlink.com 1.10,2013-04-26 00:53:00,
2013-04-25 18:08:00,66.9,49.0,30.00,WNW,292,5.0,-999.0,53,-99.99,,,0.00,weatherlink.com 1.10,2013-04-26 01:08:00,
2013-04-25 18:23:00,66.3,49.0,30.01,NW,306,2.0,-999.0,54,-99.99,,,0.00,weatherlink.com 1.10,2013-04-26 01:23:00,
2013-04-25 18:38:00,65.5,49.0,30.01,WNW,287,0.0,-999.0,56,-99.99,,,0.00,weatherlink.com 1.10,2013-04-26 01:38:00,
2013-04-25 18:53:00,64.2,49.0,30.01,NW,310,2.0,-999.0,58,-99.99,,,0.00,weatherlink.com 1.10,2013-04-26 01:53:00,
2013-04-25 19:08:00,63.2,49.0,30.01,WNW,292,0.0,-999.0,60,-99.99,,,0.00,weatherlink.com 1.10,2013-04-26 02:08:00,
2013-04-25 19:23:00,62.3,48.0,30.01,NW,322,0.0,-999.0,61,-99.99,,,0.00,weatherlink.com 1.10,2013-04-26 02:23:00,
2013-04-25 19:38:00,61.0,48.0,30.02,NW,321,4.0,-999.0,63,-99.99,,,0.00,weatherlink.com 1.10,2013-04-26 02:38:00,
2013-04-25 19:53:00,59.9,48.0,30.02,NW,323,0.0,-999.0,65,-99.99,,,0.00,weatherlink.com 1.10,2013-04-26 02:53:00,
2013-04-25 20:08:00,58.7,47.0,30.03,NW,324,0.0,-999.0,66,-99.99,,,0.00,weatherlink.com 1.10,2013-04-26 03:08:00,
2013-04-25 20:23:00,57.6,47.0,30.04,NW,325,1.0,-999.0,68,-99.99,,,0.00,weatherlink.com 1.10,2013-04-26 03:23:00,
2013-04-25 20:38:00,56.9,47.0,30.05,NW,325,0.0,-999.0,70,-99.99,,,0.00,weatherlink.com 1.10,2013-04-26 03:38:00,
2013-04-25 20:54:00,55.9,47.0,30.05,NW,325,0.0,-999.0,71,-99.99,,,0.00,weatherlink.com 1.10,2013-04-26 03:54:00,
2013-04-25 21:09:00,55.3,46.0,30.06,NW,325,0.0,-999.0,72,-99.99,,,0.00,weatherlink.com 1.10,2013-04-26 04:09:00,
2013-04-25 21:24:00,54.7,46.0,30.06,NW,325,0.0,-999.0,73,-99.99,,,0.00,weatherlink.com 1.10,2013-04-26 04:24:00,
2013-04-25 21:39:00,54.2,46.0,30.07,NW,325,0.0,-999.0,74,-99.99,,,0.00,weatherlink.com 1.10,2013-04-26 04:39:00,
2013-04-25 21:54:00,53.8,46.0,30.07,NW,325,0.0,-999.0,75,-99.99,,,0.00,weatherlink.com 1.10,2013-04-26 04:54:00,
2013-04-25 22:09:00,53.5,46.0,30.07,NW,325,0.0,-999.0,75,-99.99,,,0.00,weatherlink.com 1.10,2013-04-26 05:09:00,
2013-04-25 22:24:00,52.9,46.0,30.07,NW,325,0.0,-999.0,76,-99.99,,,0.00,weatherlink.com 1.10,2013-04-26 05:24:00,
2013-04-25 22:39:00,52.5,45.0,30.08,NW,325,0.0,-999.0,77,-99.99,,,0.00,weatherlink.com 1.10,2013-04-26 05:39:00,
2013-04-25 22:54:00,52.0,45.0,30.09,NW,325,0.0,-999.0,78,-99.99,,,0.00,weatherlink.com 1.10,2013-04-26 05:54:00,
2013-04-25 23:09:00,51.6,45.0,30.09,NW,325,0.0,-999.0,78,-99.99,,,0.00,weatherlink.com 1.10,2013-04-26 06:09:00,
2013-04-25 23:24:00,51.1,45.0,30.08,NW,325,0.0,-999.0,79,-99.99,,,0.00,weatherlink.com 1.10,2013-04-26 06:24:00,
2013-04-25 23:39:00,50.4,44.0,30.09,NW,325,0.0,-999.0,80,-99.99,,,0.00,weatherlink.com 1.10,2013-04-26 06:39:00,
2013-04-25 23:54:00,49.8,44.0,30.09,NW,325,0.0,-999.0,81,-99.99,,,0.00,weatherlink.com 1.10,2013-04-26 06:54:00,